User: anonymous   Login
Location: ????????
(37.9452°N, 23.1472°E)
Time: 23:16:43
(UTC+00:00)
Language:

ATLAS 3B R/B - Orbit

View from above orbital plane
View from above orbital plane
View from above satellite
View from above satellite

Ground track
Ground track

The orbit data is extracted from the following two-line orbital elements,

1 28538U 05004B   24175.57568529 -.00000020  00000-0  10391-3 0  9991
2 28538  63.8258 313.7759 0207314 296.3032  61.6832 13.43260397  7963
Epoch (UTC): 23 June 2024 13:48:59
Eccentricity: 0.0207314
inclination: 63.8258°
perigee height: 942 km
apogee height: 1252 km
right ascension of ascending node: 313.7759°
argument of perigee: 296.3032°
revolutions per day: 13.43260397
mean anomaly at epoch: 61.6832°
orbit number at epoch: 796

The dashed part of the orbit path shows where the satellite is in the earth's shadow,  

DLR